Regional Weather Roundup
Issued by NWS

Home | Current Version | Previous Version | Graphics & Text | Print | Product List | Glossary On
Versions: 1 2 3 4 5 6 7 8 9 10 11 12 13 14 15 16 17 18 19 20 21 22 23 24 25 26 27 28 29 30 31 32 33 34 35 36 37 38 39 40 41 42 43 44 45 46 47 48 49 50
000
ASUS45 KCYS 221010
RWRWY

WYOMING REGIONAL WEATHER ROUNDUP
NATIONAL WEATHER SERVICE CHEYENNE WY
400 AM MDT FRI AUG 22 2014

NOTE:  "FAIR" INDICATES FEW OR NO CLOUDS BELOW 12,000 FEET
WITH NO SIGNIFICANT WEATHER AND/OR OBSTRUCTIONS TO VISIBILITY.

WYZ001-221100-
YELLOWSTONE NATIONAL PARK

CITY           SKY/WX    TMP DP  RH WIND       PRES   REMARKS
LK YELLOWSTONE   N/A     44  42  93 CALM      30.25F
W YELLOWSTONE  NOT AVBL

$$
WYZ002>013-054>058-071-098>099-221100-
NORTHERN WYOMING

CITY           SKY/WX    TMP DP  RH WIND       PRES   REMARKS
JACKSON        CLOUDY    48  46  93 CALM      30.19S
CODY           CLOUDY    54  52  94 NE3       30.12F
GREYBULL       CLOUDY    58  52  80 NW12      30.08R
WORLAND        MOCLDY    52  45  77 S3        30.09S
SHERIDAN       CLOUDY    59  54  83 NW3       30.11F
BUFFALO        CLOUDY    56  53  90 CALM      30.15F
GILLETTE       CLOUDY    58  54  86 N3        30.12R
HULETT         CLOUDY    59  57  94 MISG      30.12
NEWCASTLE      FAIR      54  52  94 N7        30.07

$$
WYZ014>020-022>026-101>103-221100-
CENTRAL WYOMING

CITY           SKY/WX    TMP DP  RH WIND       PRES   REMARKS
BIG PINEY      CLOUDY    48  44  86 NE6       30.24S
PINEDALE       CLOUDY    45  45 100 SE5       30.26F
DUBOIS         CLOUDY    45  41  87 W10       30.20F
LANDER         CLOUDY    55  46  71 W7        30.11F
RIVERTON       CLOUDY    55  45  68 NW16      30.11F
CASPER         CLOUDY    53  50  89 CALM      30.15S
DOUGLAS        PTCLDY    53  51  93 W3        30.14F

$$
WYZ021-027>030-104>119-221100-
SOUTHERN WYOMING

CITY           SKY/WX    TMP DP  RH WIND       PRES   REMARKS
EVANSTON       MOCLDY    51  47  86 N7        30.21R
KEMMERER       CLOUDY    50  46  87 N12       30.20F
FORT BRIDGER     N/A     50  46  85 NW7       30.21F
ROCK SPRINGS   PTCLDY    54  39  57 W3        30.16F
DIXON          FAIR      50  46  87 NE3       30.24F
RAWLINS        PTCLDY    45  42  89 E5        30.21F
SARATOGA       FAIR      48  45  87 MISG      30.23F
LARAMIE        CLOUDY    53  45  74 S5        30.24F
CHEYENNE       CLOUDY    60  47  61 CALM      30.17S
TORRINGTON     MOCLDY    62  52  69 N9        30.06S
PINE BLUFFS    PTSUNNY   63  50  63 SW7       30.15R

$$


USA.gov is the U.S. government's official web portal to all federal, state and local government web resources and services.